Jacksonville Craig, FL

12:12 PM EDT on September 19, 2017 (GMT -0400)
Craig Municipal

Weather History for KCRG - January, 2012

Change the Weather History Date:

Tuesday, January 31, 2012

  Actual Average Record
Temperature  
Mean Temperature 56 °F -  
Max Temperature 70 °F 63 °F 80 °F (2002)
Min Temperature 41 °F 44 °F 36 °F (2009)
Degree Days  
Heating Degree Days 10    
Growing Degree Days 6 (Base 50)    
Moisture  
Dew Point 48 °F    
Average Humidity 77    
Maximum Humidity 96    
Minimum Humidity 54    
Precipitation  
Precipitation 0.00 in - - ()
Sea Level Pressure  
Sea Level Pressure 30.37 in    
Wind  
Wind Speed 3 mph (ENE)    
Max Wind Speed 10 mph    
Max Gust Speed -    
Visibility 10 miles    
Events      
Averages and records for this station are not official NWS values.
T = Trace of Precipitation, MM = Missing Value Source: NWS Daily Summary

Daily Weather History Graph

Daily Weather History Graph

Search for Another Location

Airport or City:

Trip Planner

Search our weather history database for the weather conditions in past years. The results will help you decide how hot, cold, wet, or windy it might be!

Date:

Astronomy

Jan. 31, 2012 Rise Set
Actual Time 7:17 AM EST 6:01 PM EST
Civil Twilight 6:52 AM EST 6:26 PM EST
Nautical Twilight 6:23 AM EST 6:55 PM EST
Astronomical Twilight 5:55 AM EST 7:23 PM EST
Moon 11:54 AM EST (1/31) 1:02 AM EST (1/31)
Length of Visible Light 11h 34m
Length of Day
10h 43m
First Quarter, 55% of the Moon is Illuminated
Jan 31
First Quarter
Feb 7
Full
Feb 14
Last Quarter
Feb 21
New
Feb 29
First Quarter

Hourly Weather History & Observations

Time (EST) Temp. Dew Point Humidity Pressure Visibility Wind Dir Wind Speed Gust Speed Precip Events Conditions
12:53 AM 41.0 °F 35.1 °F 79% 30.40 in 10.0 mi Calm Calm - N/A   Clear
1:53 AM 41.0 °F 37.0 °F 86% 30.40 in 10.0 mi Calm Calm - N/A   Clear
2:53 AM 42.1 °F 39.0 °F 89% 30.38 in 10.0 mi Calm Calm - N/A   Clear
3:53 AM 42.1 °F 37.9 °F 85% 30.38 in 10.0 mi Calm Calm - N/A   Clear
4:53 AM 42.1 °F 37.0 °F 82% 30.38 in 10.0 mi Calm Calm - N/A   Clear
5:53 AM 43.0 °F 37.0 °F 80% 30.38 in 10.0 mi Calm Calm - N/A   Clear
6:53 AM 43.0 °F 41.0 °F 93% 30.39 in 10.0 mi Calm Calm - N/A   Clear
7:53 AM 44.1 °F 42.1 °F 93% 30.40 in 10.0 mi Calm Calm - N/A   Clear
8:53 AM 60.1 °F 53.1 °F 78% 30.42 in 10.0 mi ENE 4.6 mph - N/A   Clear
9:53 AM 64.9 °F 52.0 °F 63% 30.43 in 10.0 mi ENE 8.1 mph - N/A   Clear
10:53 AM 66.9 °F 52.0 °F 59% 30.43 in 10.0 mi ENE 9.2 mph - N/A   Clear
11:53 AM 69.1 °F 52.0 °F 54% 30.41 in 10.0 mi ENE 8.1 mph - N/A   Clear
12:53 PM 70.0 °F 53.1 °F 55% 30.38 in 10.0 mi ENE 9.2 mph - N/A   Clear
1:53 PM 69.1 °F 53.1 °F 57% 30.35 in 10.0 mi ENE 10.4 mph - N/A   Clear
2:53 PM 66.9 °F 53.1 °F 61% 30.34 in 10.0 mi ENE 9.2 mph - N/A   Clear
3:53 PM 64.0 °F 53.1 °F 67% 30.33 in 10.0 mi ENE 9.2 mph - N/A   Clear
4:53 PM 63.0 °F 54.0 °F 72% 30.32 in 10.0 mi ENE 9.2 mph - N/A   Clear
5:53 PM 62.1 °F 54.0 °F 75% 30.33 in 10.0 mi ENE 6.9 mph - N/A   Clear
6:53 PM 60.1 °F 54.0 °F 80% 30.33 in 10.0 mi East 4.6 mph - N/A   Clear
7:53 PM 57.9 °F 54.0 °F 87% 30.34 in 10.0 mi East 4.6 mph - N/A   Clear
8:53 PM 55.9 °F 53.1 °F 90% 30.34 in 10.0 mi Calm Calm - N/A   Clear
9:53 PM 55.9 °F 53.1 °F 90% 30.34 in 10.0 mi Calm Calm - N/A   Clear
10:53 PM 53.1 °F 52.0 °F 96% 30.33 in 10.0 mi Calm Calm - N/A   Clear
11:53 PM 53.1 °F 50.0 °F 89% 30.32 in 10.0 mi Calm Calm - N/A   Clear